Weather History for Yankton, SD

Change the Weather History Date:

Monday, June 16, 2014

  Actual Average Record
Temperature  
Mean Temperature 73 °F -  
Max Temperature 82 °F 80 °F 99 °F (1952)
Min Temperature 64 °F 54 °F 41 °F (1989)
Cooling Degree Days 8    
Growing Degree Days 23 (Base 50)    
Moisture  
Dew Point 62 °F    
Average Humidity 77    
Maximum Humidity 94    
Minimum Humidity 57    
Precipitation  
Precipitation 0.31 in - - ()
Sea Level Pressure  
Sea Level Pressure 29.71 in    
Wind  
Wind Speed 14 mph (SE)    
Max Wind Speed 34 mph    
Max Gust Speed 47 mph    
Visibility 10 miles    
Events Thunderstorm    
Averages and records for this station are not official NWS values.
T = Trace of Precipitation, MM = Missing Value Source: NWS Daily Summary

Daily Weather History Graph

Daily Weather History Graph

Search for Another Location

Airport:

Trip Planner

Search our weather history database for the weather conditions in past years. The results will help you decide how hot, cold, wet, or windy it might be!

Date:

Astronomy

Jun. 16, 2014 Rise Set
Actual Time 5:50 AM CDT 9:10 PM CDT
Civil Twilight 5:14 AM CDT 9:45 PM CDT
Nautical Twilight 4:29 AM CDT 10:31 PM CDT
Astronomical Twilight 3:32 AM CDT 11:28 PM CDT
Moon 11:56 PM CDT (6/16) 10:00 AM CDT (6/16)
Length of Visible Light 16h 30m
Length of Day
15h 20m
Waning Gibbous, 83% of the Moon is Illuminated
Jun 16
Waning Gibbous
Jun 19
Last Quarter
Jun 27
New
Jul 5
First Quarter
Jul 12
Full

Hourly Weather History & Observations

Time (CDT) Temp. Heat Index Dew Point Humidity Pressure Visibility Wind Dir Wind Speed Gust Speed Precip Events Conditions
12:15 AM 68.0 °F - 53.6 °F 60% 29.87 in 10.0 mi SSW 9.2 mph - N/A   Clear
12:35 AM 66.2 °F - 53.6 °F 64% 29.87 in 10.0 mi South 11.5 mph - N/A   Clear
12:55 AM 68.0 °F - 53.6 °F 60% 29.86 in 10.0 mi South 10.4 mph - N/A   Clear
1:15 AM 66.2 °F - 53.6 °F 64% 29.85 in 10.0 mi South 12.7 mph - N/A   Clear
1:35 AM 66.2 °F - 53.6 °F 64% 29.85 in 10.0 mi South 12.7 mph - N/A   Clear
1:55 AM 66.2 °F - 53.6 °F 64% 29.85 in 10.0 mi South 12.7 mph - N/A   Clear
2:15 AM 66.2 °F - 53.6 °F 64% 29.85 in 10.0 mi South 12.7 mph - N/A   Clear
2:35 AM 68.0 °F - 53.6 °F 60% 29.85 in 10.0 mi South 9.2 mph - N/A   Clear
2:55 AM 68.0 °F - 53.6 °F 60% 29.84 in 10.0 mi South 13.8 mph - N/A   Clear
3:15 AM 68.0 °F - 53.6 °F 60% 29.85 in 10.0 mi South 11.5 mph - N/A   Clear
3:35 AM 68.0 °F - 53.6 °F 60% 29.85 in 10.0 mi South 9.2 mph - N/A   Clear
3:55 AM 66.2 °F - 53.6 °F 64% 29.85 in 10.0 mi South 8.1 mph - N/A   Clear
4:15 AM 64.4 °F - 53.6 °F 68% 29.84 in 10.0 mi SE 6.9 mph - N/A   Clear
4:35 AM 64.4 °F - 53.6 °F 68% 29.84 in 10.0 mi SSE 6.9 mph - N/A   Clear
4:55 AM 64.4 °F - 53.6 °F 68% 29.84 in 10.0 mi SE 6.9 mph - N/A   Clear
5:15 AM 64.4 °F - 55.4 °F 73% 29.84 in 10.0 mi SSE 10.4 mph - N/A   Clear
5:35 AM 64.4 °F - 55.4 °F 73% 29.83 in 10.0 mi SSE 9.2 mph - N/A   Clear
5:55 AM 64.4 °F - 57.2 °F 77% 29.84 in 10.0 mi South 10.4 mph - N/A   Clear
6:15 AM 64.4 °F - 57.2 °F 77% 29.84 in 10.0 mi SSE 9.2 mph - N/A   Clear
6:35 AM 64.4 °F - 57.2 °F 77% 29.84 in 10.0 mi SSE 6.9 mph - N/A   Clear
6:55 AM 64.4 °F - 59.0 °F 83% 29.83 in 10.0 mi East 3.5 mph - N/A   Clear
7:15 AM 64.4 °F - 59.0 °F 83% 29.83 in 10.0 mi ESE 4.6 mph - N/A   Clear
7:35 AM 66.2 °F - 60.8 °F 83% 29.83 in 10.0 mi SSE 8.1 mph - N/A   Clear
7:55 AM 66.2 °F - 60.8 °F 83% 29.81 in 10.0 mi SE 9.2 mph - N/A   Clear
8:15 AM 68.0 °F - 62.6 °F 83% 29.80 in 10.0 mi SE 15.0 mph 20.7 mph N/A   Clear
8:35 AM 69.8 °F - 62.6 °F 78% 29.81 in 10.0 mi SSE 13.8 mph - N/A   Clear
8:55 AM 69.8 °F - 62.6 °F 78% 29.80 in 10.0 mi SSE 17.3 mph 20.7 mph N/A   Clear
9:15 AM 69.8 °F - 62.6 °F 78% 29.80 in 10.0 mi SE 17.3 mph - N/A   Scattered Clouds
9:35 AM 68.0 °F - 62.6 °F 83% 29.77 in 10.0 mi East 11.5 mph 20.7 mph N/A   Mostly Cloudy
9:55 AM 69.8 °F - 62.6 °F 78% 29.80 in 10.0 mi South 11.5 mph 23.0 mph N/A Thunderstorm Mostly Cloudy
10:35 AM 71.6 °F - 66.2 °F 83% 29.74 in 10.0 mi SSE 26.5 mph 35.7 mph 0.03 in   Partly Cloudy
10:55 AM 71.6 °F - 66.2 °F 83% 29.73 in 10.0 mi SSE 24.2 mph 34.5 mph 0.03 in   Scattered Clouds
11:15 AM 73.4 °F - 64.4 °F 73% 29.70 in 10.0 mi SSE 32.2 mph 41.4 mph N/A   Scattered Clouds
11:35 AM 73.4 °F - 62.6 °F 69% 29.69 in 10.0 mi SE 23.0 mph 36.8 mph N/A   Clear
11:55 AM 73.4 °F - 59.0 °F 61% 29.69 in 10.0 mi SE 18.4 mph 31.1 mph N/A   Partly Cloudy
12:15 PM 75.2 °F - 59.0 °F 57% 29.67 in 10.0 mi SE 31.1 mph 39.1 mph N/A   Mostly Cloudy
12:35 PM 75.2 °F - 62.6 °F 65% 29.66 in 10.0 mi SSE 32.2 mph 38.0 mph N/A   Overcast
12:55 PM 75.2 °F - 66.2 °F 73% 29.64 in 10.0 mi SSE 31.1 mph 42.6 mph N/A   Mostly Cloudy
1:15 PM 75.2 °F - 66.2 °F 73% 29.62 in 10.0 mi SE 25.3 mph 39.1 mph N/A   Mostly Cloudy
1:35 PM 78.8 °F - 66.2 °F 65% 29.63 in 10.0 mi SSE 31.1 mph 36.8 mph N/A   Mostly Cloudy
1:55 PM 78.8 °F - 66.2 °F 65% 29.61 in 10.0 mi SSE 32.2 mph 47.2 mph N/A   Overcast
2:15 PM 80.6 °F 83.2 °F 68.0 °F 65% 29.58 in 10.0 mi SSE 34.5 mph 44.9 mph N/A   Mostly Cloudy
2:35 PM 80.6 °F 83.9 °F 69.8 °F 70% 29.58 in 10.0 mi SSE 28.8 mph 38.0 mph N/A   Mostly Cloudy
2:55 PM 80.6 °F 83.9 °F 69.8 °F 70% 29.59 in 10.0 mi South 29.9 mph 39.1 mph N/A   Mostly Cloudy
3:35 PM 80.6 °F 84.6 °F 71.6 °F 74% 29.59 in 10.0 mi South 18.4 mph 25.3 mph N/A   Overcast
3:55 PM 82.4 °F 87.2 °F 71.6 °F 70% 29.56 in 10.0 mi South 18.4 mph 31.1 mph N/A   Overcast
4:15 PM 82.4 °F 88.2 °F 73.4 °F 74% 29.57 in 10.0 mi SSW 10.4 mph 23.0 mph N/A   Overcast
4:35 PM 69.8 °F - 62.6 °F 78% 29.57 in 10.0 mi NNE 17.3 mph - N/A   Overcast
4:55 PM 68.0 °F - 64.4 °F 88% 29.55 in 10.0 mi NNW 17.3 mph 28.8 mph N/A Thunderstorm Overcast
5:15 PM 66.2 °F - 62.6 °F 88% 29.57 in 10.0 mi ENE 17.3 mph 24.2 mph N/A Thunderstorm Overcast
5:35 PM 69.8 °F - 64.4 °F 83% 29.60 in 10.0 mi North 13.8 mph - N/A Thunderstorm Thunderstorm
5:55 PM 68.0 °F - 64.4 °F 88% 29.58 in 10.0 mi NNE 20.7 mph 26.5 mph N/A Thunderstorm Thunderstorm
6:15 PM 66.2 °F - 64.4 °F 94% 29.55 in 10.0 mi North 17.3 mph 24.2 mph 0.11 in Thunderstorm Thunderstorm
6:35 PM 68.0 °F - 66.2 °F 94% 29.56 in 10.0 mi ENE 12.7 mph - 0.23 in Thunderstorm Thunderstorm
6:55 PM 68.0 °F - 66.2 °F 94% 29.58 in 10.0 mi ENE 9.2 mph - 0.23 in Thunderstorm Mostly Cloudy
7:15 PM 69.8 °F - 66.2 °F 88% 29.56 in 10.0 mi ESE 8.1 mph - N/A   Partly Cloudy
7:35 PM 69.8 °F - 66.2 °F 88% 29.55 in 10.0 mi ENE 4.6 mph - N/A Thunderstorm Partly Cloudy
7:55 PM 69.8 °F - 66.2 °F 88% 29.54 in 10.0 mi NNW 6.9 mph - N/A Thunderstorm Clear
8:15 PM 69.8 °F - 66.2 °F 88% 29.53 in 9.0 mi NNE 10.4 mph - N/A Thunderstorm Thunderstorm
8:35 PM 69.8 °F - 68.0 °F 94% 29.56 in 10.0 mi ENE 12.7 mph 31.1 mph 0.01 in Thunderstorm Thunderstorm
8:55 PM 71.6 °F - 69.8 °F 94% 29.54 in 8.0 mi ESE 6.9 mph - 0.01 in Thunderstorm Thunderstorm
9:15 PM 71.6 °F - 68.0 °F 88% 29.58 in 10.0 mi North 23.0 mph 29.9 mph N/A Thunderstorm Thunderstorm
9:35 PM 69.8 °F - 68.0 °F 94% 29.55 in 10.0 mi NE 12.7 mph - 0.04 in Thunderstorm Thunderstorm
9:55 PM 69.8 °F - 66.2 °F 88% 29.58 in 10.0 mi East 15.0 mph 18.4 mph 0.04 in Thunderstorm Partly Cloudy
10:15 PM 68.0 °F - 64.4 °F 88% 29.64 in 10.0 mi ENE 18.4 mph 26.5 mph N/A   Partly Cloudy
10:35 PM 66.2 °F - 64.4 °F 94% 29.66 in 10.0 mi East 11.5 mph 27.6 mph N/A Thunderstorm Mostly Cloudy
10:55 PM 66.2 °F - 64.4 °F 94% 29.65 in 10.0 mi East 17.3 mph 21.9 mph N/A   Scattered Clouds
11:15 PM 66.2 °F - 64.4 °F 94% 29.69 in 10.0 mi East 16.1 mph 26.5 mph N/A   Clear
11:35 PM 66.2 °F - 64.4 °F 94% 29.65 in 10.0 mi East 18.4 mph 26.5 mph N/A   Scattered Clouds
11:55 PM 66.2 °F - 62.6 °F 88% 29.64 in 10.0 mi East 11.5 mph 18.4 mph N/A Thunderstorm Thunderstorm